GW7096 Weather Reports


time (UTC)temp
C
wind
direction
speed
KPH
gust
KPH
rain 1hr
cm
rain 24hr
cm
rain mn
cm
humidity
%
barometer
mb
20260902043953 20 135 0.0 0.0 0.00 0.00 0.00 88 1015.6
20260902043448 20 135 0.0 0.0 0.00 0.00 0.00 87 1015.7
20260902042943 20 135 0.0 1.6 0.00 0.00 0.00 87 1015.4
20260902042443 20 138 0.0 0.0 0.00 0.00 0.00 86 1015.3
20260902041939 20 138 0.0 0.0 0.00 0.00 0.00 86 1015.3
20260902041438 20 138 0.0 0.0 0.00 0.00 0.00 85 1015.1
20260902040938 21 138 0.0 0.0 0.00 0.00 0.00 85 1014.9
20260902040433 21 137 0.0 0.0 0.00 0.00 0.00 84 1015.0
20260902035932 21 145 0.0 1.6 0.00 0.00 0.00 84 1014.7
20260902035427 21 136 0.0 1.6 0.00 0.00 0.00 84 1014.8
20260902034927 21 136 1.6 1.6 0.00 0.00 0.00 84 1014.7
20260902034422 21 151 0.0 0.0 0.00 0.00 0.00 83 1014.7
20260902033921 21 151 0.0 0.0 0.00 0.00 0.00 82 1014.4
20260902033420 21 151 0.0 0.0 0.00 0.00 0.00 81 1014.5
20260902032919 21 151 0.0 0.0 0.00 0.00 0.00 81 1014.3
20260902032414 21 150 0.0 0.0 0.00 0.00 0.00 80 1014.2
20260902031909 22 146 0.0 0.0 0.00 0.00 0.00 80 1014.1
20260902031405 22 130 1.6 1.6 0.00 0.00 0.00 80 1014.0
20260902030901 22 133 0.0 1.6 0.00 0.00 0.00 80 1014.1
20260902030355 22 132 1.6 1.6 0.00 0.00 0.00 79 1013.9
20260902025854 22 123 3.2 6.4 0.00 0.00 0.00 78 1014.0
20260902025350 22 125 1.6 4.8 0.00 0.00 0.00 78 1014.1
20260902024849 22 121 1.6 4.8 0.00 0.00 0.00 77 1014.1
20260902024345 22 128 1.6 3.2 0.00 0.00 0.00 76 1014.2
20260902023840 22 106 3.2 3.2 0.00 0.00 0.00 75 1013.8
20260902023336 23 109 1.6 4.8 0.00 0.00 0.00 74 1013.9
20260902022835 23 119 3.2 4.8 0.00 0.00 0.00 74 1013.9
20260902022331 23 128 3.2 3.2 0.00 0.00 0.00 73 1013.8
20260902021827 23 128 0.0 1.6 0.00 0.00 0.00 72 1014.0
20260902021327 23 124 0.0 0.0 0.00 0.00 0.00 72 1013.7
20260902020822 24 128 0.0 0.0 0.00 0.00 0.00 70 1013.7
20260902020319 24 133 0.0 1.6 0.00 0.00 0.00 69 1013.8
20260902015814 24 116 4.8 6.4 0.00 0.00 0.00 69 1013.7
20260902015310 25 124 0.0 4.8 0.00 0.00 0.00 66 1013.9
20260902014805 25 137 3.2 4.8 0.00 0.00 0.00 64 1014.0
20260902014302 26 123 0.0 3.2 0.00 0.00 0.00 62 1013.8
20260902013800 26 148 0.0 3.2 0.00 0.00 0.00 62 1013.8
20260902013256 26 127 0.0 1.6 0.00 0.00 0.00 60 1013.6
20260902012751 26 141 0.0 0.0 0.00 0.00 0.00 61 1013.7
20260902012247 26 132 0.0 4.8 0.00 0.00 0.00 62 1013.5
20260902011742 26 131 3.2 4.8 0.00 0.00 0.00 61 1013.7
20260902011242 26 120 3.2 4.8 0.00 0.00 0.00 59 1013.6
20260902010741 26 135 1.6 3.2 0.00 0.00 0.00 60 1013.8
20260902010237 26 94 3.2 6.4 0.00 0.00 0.00 60 1013.9
20260902005736 26 149 3.2 6.4 0.00 0.00 0.00 60 1013.9
20260902005231 26 82 6.4 6.4 0.00 0.00 0.00 59 1013.7
20260902004731 27 129 0.0 6.4 0.00 0.00 0.00 59 1013.6
20260902004226 26 129 1.6 3.2 0.00 0.00 0.00 60 1013.8
20260902003721 27 107 3.2 4.8 0.00 0.00 0.00 60 1013.7
20260902003217 27 111 3.2 3.2 0.00 0.00 0.00 59 1013.7
20260902002712 27 125 1.6 6.4 0.00 0.00 0.00 59 1013.8
20260902002212 27 75 3.2 9.7 0.00 0.00 0.00 57 1013.7
20260902001708 28 78 3.2 4.8 0.00 0.00 0.00 57 1013.6
20260902001207 27 122 3.2 4.8 0.00 0.00 0.00 57 1013.9
20260902000702 28 118 1.6 6.4 0.00 0.00 0.00 58 1013.7
20260902000158 28 110 1.6 3.2 0.00 0.00 0.00 60 1013.7
20260901235657 28 125 1.6 4.8 0.00 0.00 0.00 60 1013.7
20260901235152 28 109 4.8 6.4 0.00 0.00 0.00 55 1013.7
20260901234651 28 99 1.6 1.6 0.00 0.00 0.00 59 1013.9
20260901234146 28 95 3.2 9.7 0.00 0.00 0.00 55 1013.9
20260901233641 28 132 0.0 4.8 0.00 0.00 0.00 57 1013.9
20260901233137 28 110 6.4 9.7 0.00 0.00 0.00 59 1013.9
20260901232632 28 84 1.6 6.4 0.00 0.00 0.00 58 1013.9
20260901232127 28 90 0.0 11.3 0.00 0.00 0.00 58 1014.0
20260901231624 28 79 4.8 9.7 0.00 0.00 0.00 58 1013.9
20260901231120 28 50 4.8 9.7 0.00 0.00 0.00 52 1014.0
20260901230616 28 65 0.0 9.7 0.00 0.00 0.00 52 1014.0
20260901230115 28 150 0.0 4.8 0.00 0.00 0.00 56 1014.0
20260901225610 28 39 1.6 6.4 0.00 0.00 0.00 56 1013.7
20260901225110 28 92 3.2 3.2 0.00 0.00 0.00 57 1013.9
20260901224606 28 125 4.8 6.4 0.00 0.00 0.00 59 1014.1
20260901224102 28 106 1.6 6.4 0.00 0.00 0.00 57 1014.0
20260901223557 29 54 8.0 12.9 0.00 0.00 0.00 57 1014.2
20260901223053 30 92 4.8 6.4 0.00 0.00 0.00 54 1014.3
20260901222549 29 110 1.6 6.4 0.00 0.00 0.00 56 1014.2
20260901222044 30 110 3.2 4.8 0.00 0.00 0.00 55 1014.2
20260901221541 30 113 3.2 3.2 0.00 0.00 0.00 55 1014.1
20260901221036 29 110 1.6 6.4 0.00 0.00 0.00 56 1014.2
20260901220535 29 81 4.8 4.8 0.00 0.00 0.00 54 1014.3
20260901220034 29 24 3.2 4.8 0.00 0.00 0.00 53 1014.2
20260901215532 29 94 4.8 9.7 0.00 0.00 0.00 54 1014.4
20260901215027 29 83 3.2 9.7 0.00 0.00 0.00 52 1014.2
20260901214526 29 92 3.2 9.7 0.00 0.00 0.00 52 1014.0
20260901214025 29 51 3.2 9.7 0.00 0.00 0.00 52 1014.2
20260901213520 29 46 3.2 9.7 0.00 0.00 0.00 53 1014.3
20260901213019 29 124 1.6 6.4 0.00 0.00 0.00 54 1014.3
20260901212514 30 107 3.2 11.3 0.00 0.00 0.00 52 1014.4
20260901212011 29 32 3.2 6.4 0.00 0.00 0.00 53 1014.5
20260901211506 29 120 3.2 11.3 0.00 0.00 0.00 54 1014.3
20260901211002 29 89 3.2 6.4 0.00 0.00 0.00 54 1014.4
20260901210457 30 58 6.4 9.7 0.00 0.00 0.00 54 1014.4
20260901205953 29 119 3.2 4.8 0.00 0.00 0.00 55 1014.4
20260901205448 29 63 3.2 6.4 0.00 0.00 0.00 56 1014.5
20260901204943 29 84 3.2 9.7 0.00 0.00 0.00 56 1014.4
20260901204440 29 104 4.8 9.7 0.00 0.00 0.00 55 1014.5
20260901203939 29 79 3.2 4.8 0.00 0.00 0.00 55 1014.5
20260901203434 29 112 1.6 9.7 0.00 0.00 0.00 56 1014.6
20260901202929 30 111 1.6 11.3 0.00 0.00 0.00 56 1014.6
20260901202429 30 108 1.6 6.4 0.00 0.00 0.00 57 1014.7
20260901201925 30 111 4.8 11.3 0.00 0.00 0.00 57 1014.7
20260901201420 30 109 6.4 11.3 0.00 0.00 0.00 56 1014.4
20260901200919 30 352 4.8 6.4 0.00 0.00 0.00 56 1014.5
20260901200415 30 118 3.2 6.4 0.00 0.00 0.00 56 1014.5
20260901195914 30 105 3.2 11.3 0.00 0.00 0.00 57 1014.8
20260901195413 30 94 4.8 9.7 0.00 0.00 0.00 56 1014.7
20260901194908 30 94 1.6 9.7 0.00 0.00 0.00 58 1014.7
20260901194402 30 84 6.4 9.7 0.00 0.00 0.00 57 1014.8
20260901193859 30 86 3.2 4.8 0.00 0.00 0.00 58 1014.8
20260901193358 30 38 4.8 4.8 0.00 0.00 0.00 59 1014.7
20260901192857 30 89 4.8 6.4 0.00 0.00 0.00 57 1014.8
20260901192353 29 98 3.2 4.8 0.00 0.00 0.00 60 1015.0
20260901191849 29 10 6.4 9.7 0.00 0.00 0.00 58 1015.1
20260901191344 29 137 1.6 3.2 0.00 0.00 0.00 60 1015.1
20260901190841 29 7 3.2 6.4 0.00 0.00 0.00 58 1015.0
20260901190340 29 108 4.8 6.4 0.00 0.00 0.00 53 1015.3
20260901185839 29 73 4.8 6.4 0.00 0.00 0.00 55 1015.1
20260901185338 28 98 1.6 4.8 0.00 0.00 0.00 56 1015.0
20260901184833 28 131 0.0 4.8 0.00 0.00 0.00 56 1015.3
20260901184329 28 114 1.6 4.8 0.00 0.00 0.00 56 1015.4
20260901183824 28 130 0.0 3.2 0.00 0.00 0.00 58 1015.4
20260901183324 27 157 0.0 0.0 0.00 0.00 0.00 58 1015.5
20260901182820 27 126 3.2 4.8 0.00 0.00 0.00 60 1015.7
20260901182319 28 92 0.0 3.2 0.00 0.00 0.00 57 1015.6
20260901181814 27 166 0.0 1.6 0.00 0.00 0.00 59 1015.6
20260901181309 28 85 3.2 3.2 0.00 0.00 0.00 57 1015.5
20260901180803 28 118 3.2 4.8 0.00 0.00 0.00 58 1015.7
20260901180302 27 159 0.0 1.6 0.00 0.00 0.00 62 1015.7
20260901175801 27 146 0.0 3.2 0.00 0.00 0.00 64 1015.8
20260901175256 27 154 1.6 4.8 0.00 0.00 0.00 64 1015.8
20260901174751 27 174 1.6 1.6 0.00 0.00 0.00 66 1015.8
20260901174247 27 127 3.2 4.8 0.00 0.00 0.00 65 1015.8
20260901173742 27 127 1.6 3.2 0.00 0.00 0.00 68 1015.6
20260901173237 26 183 1.6 1.6 0.00 0.00 0.00 68 1015.8
20260901172734 25 133 1.6 1.6 0.00 0.00 0.00 70 1016.0
20260901172232 25 108 4.8 6.4 0.00 0.00 0.00 70 1016.0
20260901171731 25 133 1.6 1.6 0.00 0.00 0.00 72 1015.7
20260901171230 26 74 1.6 4.8 0.00 0.00 0.00 71 1015.6
20260901170729 25 162 0.0 1.6 0.00 0.00 0.00 73 1015.7
20260901170224 25 181 3.2 3.2 0.00 0.00 0.00 74 1015.6
20260901165723 25 154 0.0 3.2 0.00 0.00 0.00 76 1015.6
20260901165218 24 151 0.0 3.2 0.00 0.00 0.00 78 1015.6
20260901164714 24 126 0.0 3.2 0.00 0.00 0.00 78 1015.7
20260901164214 23 134 1.6 3.2 0.00 0.00 0.00 78 1015.5
20260901163710 23 107 1.6 4.8 0.00 0.00 0.00 80 1015.6
20260901163209 23 83 3.2 4.8 0.00 0.00 0.00 81 1015.6
20260901162704 23 76 3.2 3.2 0.00 0.00 0.00 81 1015.5
20260901162203 23 132 1.6 3.2 0.00 0.00 0.00 82 1015.4
20260901161703 23 127 3.2 4.8 0.00 0.00 0.00 83 1015.5
20260901161203 23 156 0.0 1.6 0.00 0.00 0.00 83 1015.3
20260901160659 22 123 1.6 1.6 0.00 0.00 0.00 83 1015.5
20260901160154 22 155 0.0 3.2 0.00 0.00 0.00 85 1015.1
20260901155653 22 148 0.0 4.8 0.00 0.00 0.00 85 1015.1
20260901155148 22 125 3.2 3.2 0.00 0.00 0.00 85 1015.5
20260901154643 22 128 0.0 1.6 0.00 0.00 0.00 85 1015.1
20260901154138 22 149 1.6 1.6 0.00 0.00 0.00 86 1015.1
20260901153634 22 173 0.0 0.0 0.00 0.00 0.00 87 1015.3
20260901153133 22 173 0.0 0.0 0.00 0.00 0.00 88 1015.1
20260901152628 21 174 0.0 0.0 0.00 0.00 0.00 89 1015.1
20260901152126 21 170 0.0 0.0 0.00 0.00 0.00 91 1014.9
20260901151623 21 167 0.0 1.6 0.00 0.00 0.00 92 1014.9
20260901151122 20 149 0.0 0.0 0.00 0.00 0.00 94 1015.1
20260901150621 20 133 0.0 0.0 0.00 0.00 0.00 95 1014.9
20260901150120 20 132 0.0 0.0 0.00 0.00 0.00 95 1015.0
20260901145618 20 131 1.6 1.6 0.00 0.00 0.00 95 1015.1
20260901145117 20 122 3.2 3.2 0.00 0.00 0.00 96 1015.3
20260901144613 20 138 0.0 0.0 0.00 0.00 0.00 98 1015.0
20260901144108 19 138 0.0 0.0 0.00 0.00 0.00 99 1014.8
20260901143604 19 138 0.0 0.0 0.00 0.00 0.00 99 1015.0
20260901143100 19 138 0.0 0.0 0.00 0.00 0.00 99 1015.0
20260901142556 18 138 0.0 0.0 0.00 0.00 0.00 99 1014.9
20260901142055 18 137 0.0 0.0 0.00 0.00 0.00 99 1014.6
20260901141550 18 138 0.0 0.0 0.00 0.00 0.00 99 1014.8
20260901141044 18 137 0.0 0.0 0.00 0.00 0.00 99 1014.6
20260901140543 17 137 0.0 0.0 0.00 0.00 0.00 99 1014.8
20260901140038 17 137 0.0 0.0 0.00 0.00 0.00 99 1014.9
20260901135537 17 137 0.0 0.0 0.00 0.00 0.00 99 1014.5
20260901135032 17 137 0.0 0.0 0.00 0.00 0.00 99 1014.5
20260901134529 17 137 0.0 0.0 0.00 0.00 0.00 99 1014.6
20260901134029 17 137 0.0 0.0 0.00 0.00 0.00 99 1014.6
20260901133528 17 137 0.0 0.0 0.00 0.00 0.00 99 1014.6
20260901133026 17 137 0.0 0.0 0.00 0.00 0.00 99 1014.4
20260901132521 17 137 0.0 0.0 0.00 0.00 0.00 99 1014.4
20260901132021 17 137 0.0 0.0 0.00 0.00 0.00 99 1014.3
20260901131515 17 137 0.0 0.0 0.00 0.00 0.00 99 1014.4
20260901131010 17 137 0.0 0.0 0.00 0.00 0.00 99 1014.4
20260901130505 17 137 0.0 0.0 0.00 0.00 0.00 99 1014.2
20260901130003 17 137 0.0 0.0 0.00 0.00 0.00 99 1014.2
20260901125502 17 137 0.0 0.0 0.00 0.00 0.00 99 1014.4
20260901125002 17 137 0.0 0.0 0.00 0.00 0.00 99 1014.3
20260901124458 17 137 0.0 0.0 0.00 0.00 0.00 99 1014.5
20260901123952 17 137 0.0 0.0 0.00 0.00 0.00 99 1014.4
20260901123447 17 137 0.0 0.0 0.00 0.00 0.00 99 1014.2
20260901122946 17 137 0.0 0.0 0.00 0.00 0.00 99 1014.3
20260901122445 17 137 0.0 0.0 0.00 0.00 0.00 99 1014.3
20260901121944 17 137 0.0 0.0 0.00 0.00 0.00 99 1014.3
20260901121440 17 137 0.0 0.0 0.00 0.00 0.00 99 1014.3
20260901120935 17 137 0.0 0.0 0.00 0.00 0.00 99 1014.2
20260901120435 17 137 0.0 0.0 0.00 0.00 0.00 99 1014.2
20260901115931 17 137 0.0 0.0 0.00 0.00 0.00 99 1014.2
20260901115430 17 137 0.0 0.0 0.00 0.00 0.00 99 1014.2
20260901114928 17 137 0.0 0.0 0.00 0.00 0.00 99 1014.0
20260901114423 17 137 0.0 0.0 0.00 0.00 0.00 99 1014.2
20260901113921 17 137 0.0 0.0 0.00 0.00 0.00 99 1014.1
20260901113421 17 137 0.0 0.0 0.00 0.00 0.00 99 1013.9
20260901112916 17 137 0.0 0.0 0.00 0.00 0.00 99 1014.0
20260901112412 17 137 0.0 0.0 0.00 0.00 0.00 99 1014.1
20260901111912 17 137 0.0 0.0 0.00 0.00 0.00 99 1014.1
20260901111410 17 137 0.0 0.0 0.00 0.00 0.00 99 1013.8
20260901110909 17 137 0.0 0.0 0.00 0.00 0.00 99 1013.9
20260901110405 17 137 0.0 0.0 0.00 0.00 0.00 99 1014.1
20260901105901 17 137 0.0 0.0 0.00 0.00 0.00 99 1014.0
20260901105356 17 137 0.0 0.0 0.00 0.00 0.00 99 1014.1
20260901104852 17 137 0.0 0.0 0.00 0.00 0.00 99 1013.9
20260901104347 18 137 0.0 0.0 0.00 0.00 0.00 99 1014.1
20260901103843 18 137 0.0 0.0 0.00 0.00 0.00 99 1014.2
20260901103342 18 137 0.0 0.0 0.00 0.00 0.00 99 1014.2
20260901102837 18 137 0.0 0.0 0.00 0.00 0.00 99 1014.3
20260901102337 18 137 0.0 0.0 0.00 0.00 0.00 99 1014.5
20260901101833 18 137 0.0 0.0 0.00 0.00 0.00 99 1014.3
20260901101333 18 137 0.0 0.0 0.00 0.00 0.00 99 1014.2
20260901100832 18 137 0.0 0.0 0.00 0.00 0.00 99 1014.3
20260901100327 18 137 0.0 0.0 0.00 0.00 0.00 99 1014.3
20260901095826 18 137 0.0 0.0 0.00 0.00 0.00 99 1014.5
20260901095324 18 137 0.0 0.0 0.00 0.00 0.00 99 1014.2
20260901094818 18 137 0.0 0.0 0.00 0.00 0.00 99 1014.2
20260901094313 18 137 0.0 0.0 0.00 0.00 0.00 99 1014.2
20260901093808 18 137 0.0 0.0 0.00 0.00 0.00 99 1014.4
20260901093307 18 137 0.0 0.0 0.00 0.00 0.00 99 1014.2
20260901092803 18 137 0.0 0.0 0.00 0.00 0.00 99 1014.3
20260901092259 18 137 0.0 0.0 0.00 0.00 0.00 99 1014.3
20260901091754 18 137 0.0 0.0 0.00 0.00 0.00 98 1014.2
20260901091250 18 137 0.0 0.0 0.00 0.00 0.00 98 1014.1
20260901090749 18 137 0.0 0.0 0.00 0.00 0.00 98 1014.0
20260901090245 18 137 0.0 0.0 0.00 0.00 0.00 98 1014.1
20260901085741 18 137 0.0 0.0 0.00 0.00 0.00 98 1014.2
20260901085236 18 137 0.0 0.0 0.00 0.00 0.00 98 1014.3
20260901084732 18 137 0.0 0.0 0.00 0.00 0.00 98 1014.3
20260901084229 18 137 0.0 0.0 0.00 0.00 0.00 97 1014.3
20260901083728 18 137 0.0 0.0 0.00 0.00 0.00 97 1014.1
20260901083228 18 137 0.0 0.0 0.00 0.00 0.00 97 1014.2
20260901082726 18 137 0.0 0.0 0.00 0.00 0.00 97 1014.3
20260901082222 18 137 0.0 0.0 0.00 0.00 0.00 97 1014.3
20260901081718 18 137 0.0 0.0 0.00 0.00 0.00 97 1014.4
20260901081217 18 137 0.0 0.0 0.00 0.00 0.00 96 1014.3
20260901080713 19 137 0.0 0.0 0.00 0.00 0.00 96 1014.3
20260901080211 19 137 0.0 0.0 0.00 0.00 0.00 96 1014.5
20260901075711 19 137 0.0 0.0 0.00 0.00 0.00 96 1014.4
20260901075211 19 137 0.0 0.0 0.00 0.00 0.00 96 1014.3
20260901074706 19 137 0.0 0.0 0.00 0.00 0.00 95 1014.2
20260901074201 20 137 0.0 0.0 0.00 0.00 0.00 95 1014.2
20260901073657 20 137 0.0 0.0 0.00 0.00 0.00 95 1014.5
20260901073153 20 137 0.0 0.0 0.00 0.00 0.00 95 1014.3
20260901072648 20 137 0.0 0.0 0.00 0.00 0.00 95 1014.3
20260901072143 20 137 0.0 0.0 0.00 0.00 0.00 94 1014.4
20260901071643 20 137 0.0 0.0 0.00 0.00 0.00 94 1014.3
20260901071143 20 137 0.0 0.0 0.00 0.00 0.00 94 1014.3
20260901070637 20 138 0.0 0.0 0.00 0.00 0.00 95 1014.4
20260901070132 20 139 0.0 0.0 0.00 0.00 0.00 94 1014.4
20260901065631 20 139 0.0 0.0 0.00 0.00 0.00 94 1014.6
20260901065126 20 139 0.0 0.0 0.00 0.00 0.00 94 1014.5
20260901064623 20 139 0.0 0.0 0.00 0.00 0.00 94 1014.3
20260901064119 20 139 0.0 0.0 0.00 0.00 0.00 93 1014.4
20260901063616 20 139 0.0 0.0 0.00 0.00 0.00 93 1014.4
20260901063112 20 138 0.0 0.0 0.00 0.00 0.00 93 1014.4
20260901062607 20 138 0.0 0.0 0.00 0.00 0.00 92 1014.4
20260901062103 20 138 0.0 0.0 0.00 0.00 0.00 92 1014.4
20260901061559 21 138 0.0 0.0 0.00 0.00 0.00 92 1014.1
20260901061054 21 138 0.0 0.0 0.00 0.00 0.00 92 1014.4
20260901060548 21 138 0.0 1.6 0.00 0.00 0.00 92 1014.2
20260901060044 21 133 0.0 3.2 0.00 0.00 0.00 91 1014.1
20260901055539 21 138 0.0 1.6 0.00 0.00 0.00 91 1014.4
20260901055036 21 115 3.2 3.2 0.00 0.00 0.00 91 1014.4
20260901054532 21 130 1.6 3.2 0.00 0.00 0.00 91 1014.4
20260901054028 21 117 0.0 0.0 0.00 0.00 0.00 91 1014.2
20260901053524 21 120 0.0 0.0 0.00 0.00 0.00 91 1014.3
20260901053020 21 123 0.0 0.0 0.00 0.00 0.00 91 1014.3
20260901052520 21 123 0.0 0.0 0.00 0.00 0.00 90 1014.4
20260901052020 21 123 0.0 0.0 0.00 0.00 0.00 90 1014.3
20260901051515 21 123 0.0 0.0 0.00 0.00 0.00 90 1014.1
20260901051013 21 124 0.0 0.0 0.00 0.00 0.00 90 1013.9
20260901050509 21 124 0.0 0.0 0.00 0.00 0.00 89 1014.1
20260901050004 21 126 0.0 0.0 0.00 0.00 0.00 89 1014.0
20260901045500 21 126 0.0 0.0 0.00 0.00 0.00 88 1013.9
20260901044959 21 131 0.0 0.0 0.00 0.00 0.00 88 1013.9
20260901044455 21 131 0.0 0.0 0.00 0.00 0.00 88 1013.8